Temp_Advection
nan nan nan nan nan nan nan nan nan nan nan nan nan nan nan nan nan nan nan nan nan nan nan nan nan nan nan nan nan nan nan nan nan nan nan nan nan nan
nan -0 -0 0 -0 1 1 1 1 0 1 1 1 2 1 0 0 0 1 1 1 1 0 1 1 -0 -0 -0 0 0 -0 -0 0 1 0 -0 -0 nan
nan -0 -0 -0 -0 0 0 1 1 1 1 0 0 0 0 1 1 0 2 1 0 1 1 0 -0 -0 0 0 1 1 0 -0 -0 0 0 -0 -0 nan
nan -0 -0 -0 0 0 0 0 1 1 0 -0 0 1 0 0 1 1 0 0 0 0 1 1 1 0 -0 0 -0 -0 -0 0 1 0 -0 -0 -0 nan
nan -0 -0 -0 -0 1 1 0 0 0 0 0 0 0 0 1 1 0 0 1 0 1 1 0 0 -0 -0 -0 0 0 1 0 0 0 -0 -0 -0 nan
nan 0 0 0 -0 0 0 0 0 0 0 0 0 0 0 1 1 1 1 0 0 0 0 0 0 -0 -0 0 0 0 -0 0 1 1 0 0 -0 nan
nan 0 0 0 0 0 0 -0 0 -0 -0 0 0 0 1 1 1 0 0 0 0 0 -0 -0 0 0 0 -0 -0 -0 -0 0 0 1 0 -0 -0 nan
nan -0 -0 -0 -0 -0 -0 -0 0 0 0 0 0 0 0 0 0 0 0 0 -0 -0 -1 0 -0 -0 0 -0 -0 -0 0 0 0 1 0 0 -0 nan
nan -0 -0 -0 -0 0 0 0 -0 -0 0 0 0 0 0 0 0 0 0 -0 -0 0 -1 -1 -0 0 0 -0 0 0 -0 0 0 0 1 1 0 nan
nan -0 -0 -0 -0 -0 -0 -0 0 0 0 0 0 0 0 0 0 -0 -0 -0 -0 0 -0 -1 -0 -0 0 -0 -0 0 0 0 0 -0 0 1 1 nan
nan -0 -0 -0 -0 -0 -0 -0 -0 -0 -0 0 0 -0 0 0 -0 -0 0 -0 -0 -0 -0 -0 -0 -1 -0 0 0 0 0 0 0 0 0 0 1 nan
nan -0 -0 -0 -0 -0 -0 -0 0 0 0 -0 -0 -0 -0 0 -0 -0 0 0 -0 -0 -0 -0 -0 -1 -1 -1 0 0 0 0 0 0 0 0 0 nan
nan -0 -0 -0 -0 -0 -0 0 0 -0 -0 0 -0 0 0 0 0 0 -0 -0 0 0 -0 -1 -0 0 -1 -4 -2 0 0 0 0 0 0 0 0 nan
nan -0 -0 -0 -0 -0 -0 -0 0 0 -0 -0 0 0 0 -0 -0 -0 -0 -0 0 0 1 0 -0 0 1 -1 -5 -2 -1 0 0 0 0 0 0 nan
nan -0 -0 -0 -0 -0 0 -0 -0 -0 -0 -0 -0 -0 -0 -0 -0 -0 -0 -0 0 0 0 0 0 0 0 -0 -3 -2 -1 -2 0 0 0 0 -0 nan
nan -0 0 0 -0 -0 -0 0 -0 -0 -0 -0 -0 -0 -0 -0 -0 -0 -0 -0 -0 -0 1 1 1 1 0 0 -2 -3 1 -1 -2 0 0 -0 -0 nan
nan -0 -0 -0 -0 -0 -0 -0 -0 -0 -0 -0 -0 -0 -0 -0 -0 -0 -0 -0 -0 -1 -0 0 1 1 1 0 -2 -2 -1 0 -1 -0 0 -0 -1 nan
nan -0 -0 -0 -0 -0 -0 0 -0 -0 -0 -0 -0 0 -0 -0 -0 -0 -0 -0 -0 -1 -1 -0 0 0 -0 -1 -1 -1 -0 -1 -1 0 0 -0 -1 nan
nan 0 0 -0 -0 -0 -0 -0 -0 -0 -0 -0 -0 -0 -0 -0 -0 -0 0 -0 -0 -1 -0 0 0 1 -0 -3 -2 0 -0 -1 -1 -1 0 0 -0 nan
nan -0 -0 -0 -0 -0 -0 -0 -0 -0 -0 -0 -0 -0 -0 -0 -0 -0 0 -0 -1 -1 -1 0 1 1 1 -0 -3 -3 1 0 -0 -1 -1 -0 -0 nan
nan 0 0 -0 -0 -0 -0 -0 -0 -0 -0 -0 -0 -0 -0 -0 -0 -0 0 0 0 -0 -1 -1 1 1 1 0 -3 -4 -1 1 1 0 -0 0 -0 nan
nan 0 0 0 0 0 0 -0 -0 -0 -0 -0 -0 0 0 0 -0 -0 -0 -0 0 0 -0 -1 -0 0 1 0 -0 -3 -3 -1 -0 1 1 1 1 nan
nan nan nan nan nan nan nan nan nan nan nan nan nan nan nan nan nan nan nan nan nan nan nan nan nan nan nan nan nan nan nan nan nan nan nan nan nan nan
Wind_Speed
30 33 34 35 35 39 42 38 40 30 37 39 37 37 40 43 41 42 37 35 36 31 32 33 34 35 32 29 30 31 29 28 29 29 26 23 20 20
25 26 28 30 31 32 34 32 36 39 34 26 29 32 31 36 37 37 32 29 31 34 33 32 30 29 28 28 29 27 26 25 26 24 22 20 20 20
23 23 25 24 24 27 27 28 26 27 31 26 23 21 22 21 25 28 27 29 30 28 25 26 24 25 26 26 26 25 23 22 23 22 20 18 18 19
17 19 20 19 20 22 25 25 24 22 18 20 18 23 23 21 23 25 24 22 21 20 22 24 23 22 24 22 20 21 22 22 19 18 17 17 18 19
14 14 14 15 18 20 19 17 14 11 9 13 15 17 17 17 18 18 16 17 18 19 19 19 18 18 20 22 22 19 17 17 17 18 18 18 19 19
12 13 12 11 12 11 8 6 4 5 7 9 9 10 12 13 14 14 15 16 16 16 15 16 20 21 21 20 16 17 18 18 18 18 17 18 19 19
5 5 5 5 3 2 2 2 3 3 3 3 5 8 11 12 12 11 12 13 13 16 16 18 19 15 13 14 15 15 15 14 14 16 17 19 20 22
4 3 2 2 2 2 3 4 5 5 4 5 6 6 6 7 9 10 11 13 15 13 14 16 13 12 10 12 12 11 11 13 16 17 17 19 20 22
5 3 2 2 3 4 5 5 5 6 6 7 8 8 9 11 11 13 15 17 19 15 16 16 8 6 8 8 9 11 12 10 11 13 17 19 20 20
5 4 4 5 6 6 7 8 8 8 9 9 10 10 11 12 14 15 16 17 15 11 12 16 9 6 8 10 11 6 6 12 12 15 19 22 24 24
6 7 7 8 9 11 11 11 10 10 10 10 10 9 11 13 14 14 13 12 13 11 11 14 7 14 14 9 4 7 14 15 17 16 19 21 23 23
8 8 9 9 10 10 11 10 11 11 10 11 12 12 11 8 7 8 8 10 12 11 2 9 15 17 13 12 15 19 19 19 18 20 20 22 22 24
12 12 12 12 10 10 11 10 10 11 11 11 10 8 6 6 7 9 10 12 14 16 14 15 19 20 19 24 26 25 24 23 22 20 19 16 17 19
12 12 12 12 12 12 12 11 10 11 9 7 6 6 7 9 11 13 14 16 18 19 17 19 23 22 23 27 31 28 28 25 25 20 22 21 17 19
14 14 14 13 12 11 10 9 9 7 6 6 6 8 9 11 12 14 16 16 18 18 18 19 20 21 22 26 30 30 31 28 22 25 24 23 23 20
14 13 13 12 12 11 9 7 6 6 7 8 9 11 12 13 13 14 16 16 18 18 18 19 19 20 23 25 26 30 28 30 28 26 26 27 26 24
14 12 12 11 10 9 8 8 8 8 10 12 13 14 13 14 15 15 17 18 20 21 20 19 19 20 23 26 29 30 30 30 29 29 28 32 29 27
15 14 12 12 11 10 10 10 11 13 14 13 13 14 15 16 17 17 18 20 22 22 22 21 21 23 25 29 28 29 29 33 32 33 32 35 35 27
14 13 12 12 12 11 11 12 14 13 14 14 15 16 17 18 18 19 20 21 23 24 23 22 22 23 27 33 31 25 29 32 37 36 29 31 35 33
14 14 13 12 11 12 12 14 15 15 15 16 17 17 18 20 21 21 21 24 25 26 27 26 26 24 26 32 36 38 32 36 33 32 33 32 34 34
12 12 13 13 13 13 14 14 16 17 17 18 19 19 20 21 23 23 24 25 26 27 30 29 25 24 26 28 35 39 35 30 28 32 34 35 39 39
13 13 13 13 13 14 15 15 17 18 19 19 20 21 22 24 25 26 26 29 29 30 31 30 27 27 28 30 36 39 38 33 30 31 31 31 35 35
13 14 14 14 14 15 16 17 18 19 20 21 22 23 24 27 27 28 29 29 30 31 31 32 32 32 34 33 33 36 39 39 39 40 38 35 38 37
Wind_Direction
273 276 280 285 288 272 268 262 255 246 251 249 245 247 241 243 249 254 259 274 264 265 263 259 259 257 263 266 273 276 278 281 281 279 278 278 279 277
272 273 275 280 281 274 265 251 247 250 247 250 242 242 240 247 252 253 256 254 259 259 262 261 263 266 269 274 273 276 279 279 278 278 277 277 275 273
275 272 273 277 278 274 264 268 270 269 262 263 258 256 252 253 244 245 252 257 262 263 267 269 269 269 268 269 271 273 278 278 279 278 277 273 270 269
277 272 270 268 274 277 274 276 278 282 274 261 260 251 240 247 245 252 253 255 259 262 261 257 258 261 267 273 273 274 275 278 277 276 274 272 271 271
273 268 264 270 275 273 270 270 270 267 252 245 237 235 240 239 244 248 260 256 257 258 261 263 261 258 265 272 276 276 277 276 274 275 275 274 271 271
265 262 264 272 276 273 274 276 267 239 230 234 241 247 246 244 242 247 250 260 262 262 260 268 270 270 273 269 271 271 273 274 275 277 277 278 279 277
263 255 263 278 280 265 263 295 292 280 281 267 247 231 228 233 240 245 246 253 262 270 276 277 273 270 267 272 271 275 276 277 280 281 278 276 275 274
55 34 18 8 339 319 318 302 285 282 277 257 243 242 237 238 249 259 270 275 281 282 290 271 280 272 269 265 273 275 278 283 282 281 282 281 278 275
54 49 12 318 289 289 301 294 298 297 284 275 273 269 263 260 262 260 264 274 284 288 285 289 287 275 269 276 288 287 288 286 288 286 285 282 280 278
23 0 345 337 323 305 293 286 285 283 281 279 273 267 266 269 271 275 279 282 283 285 289 293 311 293 296 302 288 275 302 306 297 290 283 279 277 279
353 339 330 323 314 308 306 302 300 298 295 294 292 285 279 273 270 275 282 284 291 297 287 283 295 309 314 314 274 300 315 318 308 301 297 290 284 277
334 323 317 317 316 311 307 298 290 290 285 278 283 287 284 274 269 270 274 282 290 311 255 302 304 319 318 306 307 317 319 315 310 307 302 295 288 278
332 329 326 325 322 311 304 303 293 288 290 288 285 282 278 272 271 273 278 282 284 282 285 291 297 303 303 304 310 319 321 322 317 314 311 305 300 291
331 326 323 317 315 312 308 304 295 291 295 289 281 277 277 277 278 280 282 286 286 284 283 280 283 290 293 298 301 315 315 319 319 322 321 314 305 296
328 325 322 316 312 311 304 296 292 291 286 286 291 290 293 297 300 300 296 291 284 278 276 279 281 286 286 290 297 305 314 321 315 321 322 315 311 303
317 316 312 309 309 309 302 297 292 289 288 286 286 289 291 292 293 297 301 304 300 297 292 289 286 285 285 286 291 298 310 304 314 316 319 317 318 312
321 316 310 307 308 305 297 290 285 281 280 284 287 291 296 301 303 306 307 307 305 307 305 299 289 282 277 285 286 295 303 303 310 313 312 313 316 314
319 318 314 313 312 308 300 292 286 286 288 292 296 301 303 306 308 309 310 310 308 307 307 310 305 297 292 290 286 296 299 304 313 311 308 305 306 311
313 311 309 310 310 306 302 297 297 295 297 301 302 303 304 306 307 306 310 313 311 310 311 314 313 309 301 290 296 291 290 297 303 302 302 302 302 305
309 307 308 306 304 300 298 297 300 298 297 297 297 300 303 306 306 308 311 311 310 310 309 310 309 308 299 291 293 293 295 296 301 299 302 305 305 308
310 304 303 302 302 303 301 298 300 301 299 299 301 302 303 302 303 306 307 308 306 301 299 302 307 307 302 297 287 294 300 302 299 300 303 301 304 303
316 311 309 305 302 300 298 294 292 294 297 298 299 299 300 300 301 303 303 305 305 304 303 306 310 308 304 299 297 299 303 307 306 305 300 296 294 286
315 310 309 306 301 298 296 294 293 295 296 297 297 297 296 296 299 300 300 301 303 304 305 308 310 308 305 300 294 295 301 305 310 308 305 309 303 297
Height
1485 1485 1484 1482 1482 1481 1478 1479 1482 1483 1480 1481 1484 1485 1488 1490 1488 1494 1495 1495 1500 1502 1499 1501 1503 1510 1508 1508 1508 1507 1505 1503 1503 1503 1503 1503 1504 1504
1479 1480 1478 1477 1476 1476 1470 1470 1472 1475 1474 1475 1475 1478 1481 1484 1485 1486 1488 1490 1491 1492 1494 1498 1500 1501 1500 1499 1500 1499 1497 1495 1494 1495 1495 1495 1496 1497
1473 1473 1473 1472 1471 1471 1470 1471 1470 1470 1468 1472 1474 1475 1476 1477 1478 1480 1481 1483 1486 1488 1489 1492 1493 1494 1492 1491 1492 1491 1488 1487 1486 1487 1487 1487 1489 1489
1469 1468 1468 1467 1467 1467 1467 1466 1465 1465 1467 1464 1464 1465 1471 1470 1473 1477 1479 1479 1482 1482 1484 1484 1486 1487 1487 1486 1485 1481 1480 1479 1479 1480 1481 1481 1481 1482
1465 1465 1465 1464 1462 1461 1462 1462 1461 1462 1462 1466 1464 1466 1468 1468 1472 1475 1474 1475 1476 1477 1477 1479 1481 1481 1479 1478 1476 1473 1473 1473 1473 1474 1473 1473 1473 1472
1462 1462 1462 1460 1460 1459 1460 1459 1459 1461 1462 1464 1462 1464 1467 1467 1468 1470 1470 1471 1472 1473 1475 1476 1474 1473 1472 1470 1468 1468 1467 1467 1467 1467 1467 1467 1466 1465
1460 1460 1460 1460 1459 1459 1459 1458 1460 1461 1459 1459 1461 1464 1465 1465 1466 1466 1467 1469 1470 1469 1469 1468 1467 1467 1465 1464 1463 1463 1462 1462 1461 1461 1461 1461 1460 1460
1462 1461 1461 1461 1461 1461 1459 1458 1459 1459 1459 1460 1461 1462 1461 1462 1463 1463 1464 1464 1465 1464 1463 1462 1462 1461 1460 1459 1459 1458 1457 1456 1455 1455 1454 1454 1453 1453
1463 1462 1462 1461 1461 1459 1459 1459 1458 1458 1459 1459 1459 1459 1459 1460 1460 1460 1460 1460 1459 1459 1458 1455 1456 1456 1455 1455 1454 1453 1452 1451 1450 1449 1448 1446 1445 1444
1464 1463 1462 1461 1460 1459 1459 1458 1458 1458 1458 1457 1457 1457 1457 1456 1456 1456 1456 1455 1455 1455 1453 1450 1451 1450 1450 1450 1449 1448 1448 1447 1445 1443 1441 1439 1437 1436
1463 1462 1461 1461 1459 1458 1457 1456 1455 1455 1454 1454 1454 1454 1453 1452 1452 1452 1451 1451 1451 1451 1450 1447 1447 1444 1444 1444 1443 1444 1443 1441 1438 1436 1434 1431 1428 1426
1463 1462 1461 1459 1458 1456 1454 1453 1453 1452 1452 1451 1451 1450 1449 1448 1448 1448 1447 1447 1447 1446 1446 1446 1443 1442 1439 1438 1438 1436 1435 1434 1432 1429 1426 1423 1420 1417
1460 1459 1458 1456 1455 1454 1452 1451 1450 1449 1449 1448 1447 1447 1446 1446 1446 1445 1444 1443 1443 1442 1443 1442 1439 1438 1436 1432 1428 1427 1426 1425 1422 1420 1418 1415 1413 1410
1459 1457 1456 1454 1453 1451 1450 1449 1448 1447 1446 1445 1445 1444 1444 1444 1443 1442 1441 1440 1438 1437 1437 1437 1434 1433 1430 1427 1422 1420 1418 1417 1414 1412 1409 1407 1405 1403
1457 1455 1453 1452 1450 1449 1447 1446 1445 1445 1444 1444 1443 1442 1441 1440 1439 1438 1436 1435 1433 1432 1431 1430 1428 1427 1425 1421 1416 1413 1411 1408 1407 1405 1402 1399 1397 1395
1455 1453 1451 1449 1448 1446 1445 1444 1443 1443 1442 1441 1440 1439 1438 1436 1435 1433 1431 1429 1427 1426 1425 1424 1422 1420 1417 1415 1412 1406 1406 1403 1400 1397 1394 1390 1388 1385
1452 1450 1448 1447 1445 1444 1443 1442 1442 1441 1439 1438 1436 1435 1434 1432 1430 1429 1426 1424 1422 1419 1418 1416 1415 1413 1410 1408 1404 1401 1398 1395 1393 1389 1386 1381 1379 1376
1449 1447 1446 1444 1442 1441 1440 1440 1439 1437 1436 1434 1432 1431 1429 1427 1425 1424 1422 1419 1416 1414 1411 1410 1407 1404 1401 1398 1397 1392 1389 1386 1384 1380 1378 1373 1367 1368
1446 1444 1442 1441 1439 1438 1437 1436 1434 1433 1432 1430 1428 1427 1425 1423 1421 1419 1417 1414 1411 1408 1405 1403 1401 1399 1394 1387 1388 1388 1383 1379 1376 1372 1369 1366 1360 1357
1442 1440 1439 1437 1435 1434 1432 1431 1430 1428 1427 1426 1424 1422 1420 1418 1415 1413 1411 1408 1405 1401 1398 1396 1394 1392 1388 1383 1377 1373 1375 1370 1368 1362 1358 1355 1351 1347
1438 1436 1434 1433 1431 1429 1428 1427 1425 1424 1422 1420 1419 1417 1415 1412 1409 1407 1405 1402 1399 1396 1391 1389 1388 1385 1381 1377 1369 1362 1363 1363 1359 1354 1349 1346 1339 1336
1434 1432 1430 1428 1426 1424 1423 1422 1420 1419 1417 1415 1413 1410 1408 1406 1403 1400 1398 1394 1391 1387 1382 1379 1378 1375 1372 1368 1360 1355 1350 1349 1348 1344 1341 1339 1334 1326
1430 1428 1426 1424 1422 1420 1418 1417 1415 1413 1411 1409 1406 1404 1401 1398 1396 1393 1390 1387 1383 1379 1375 1370 1368 1365 1361 1357 1353 1346 1342 1337 1334 1329 1325 1325 1322 1319